EW9826 Weather Reports


time (UTC)temp
F
wind
direction
speed
knots
gust
knots
rain 1hr
in
rain 24hr
in
rain mn
in
humidity
%
barometer
mb
20260905162103 66 310 5.2 11.3 0.00 0.00 0.00 67 1024.7
20260905161601 66 314 5.2 10.4 0.00 0.00 0.00 66 1024.6
20260905161102 66 291 4.3 13.9 0.00 0.00 0.00 66 1024.6
20260905155602 67 291 4.3 10.4 0.00 0.00 0.00 67 1024.5
20260905155103 66 285 5.2 10.4 0.00 0.00 0.00 68 1024.4
20260905154602 66 269 3.5 7.8 0.00 0.00 0.00 68 1024.3
20260905154102 66 296 4.3 8.7 0.00 0.00 0.00 68 1024.2
20260905153602 66 303 3.5 6.1 0.00 0.00 0.00 68 1024.1
20260905153102 66 307 5.2 11.3 0.00 0.00 0.00 68 1024.1
20260905152601 66 306 6.1 12.2 0.00 0.00 0.00 67 1024.1
20260905151602 66 292 6.1 11.3 0.00 0.00 0.00 67 1024.0
20260905151102 66 300 6.1 13.9 0.00 0.00 0.00 66 1024.0
20260905145601 66 304 7.0 12.2 0.00 0.00 0.00 67 1024.0
20260905145103 66 303 7.8 15.6 0.00 0.00 0.00 67 1023.9
20260905144601 66 310 6.1 10.4 0.00 0.00 0.00 67 1023.9
20260905144102 66 299 7.8 11.3 0.00 0.00 0.00 67 1023.9
20260905143602 66 302 6.1 13.9 0.00 0.00 0.00 66 1023.8
20260905143102 66 318 7.8 13.0 0.00 0.00 0.00 67 1023.6
20260905142602 66 299 5.2 12.2 0.00 0.00 0.00 68 1023.6
20260905142102 66 322 6.1 15.6 0.00 0.00 0.00 67 1023.6
20260905141601 66 295 5.2 11.3 0.00 0.00 0.00 67 1023.6
20260905141103 66 305 6.1 12.2 0.00 0.00 0.00 66 1023.5
20260905135601 66 297 7.0 11.3 0.00 0.00 0.00 68 1023.5
20260905134103 67 290 6.1 13.0 0.00 0.00 0.00 67 1023.4
20260905132602 67 280 6.1 13.9 0.00 0.00 0.00 67 1023.1
20260905132102 67 298 6.1 17.4 0.00 0.00 0.00 65 1023.1
20260905131602 66 278 5.2 11.3 0.00 0.00 0.00 68 1023.1
20260905131102 66 276 7.8 15.6 0.00 0.00 0.00 69 1023.0
20260905123602 66 303 9.6 15.6 0.00 0.00 0.00 69 1022.7
20260905123103 65 289 6.1 12.2 0.00 0.00 0.00 70 1022.6
20260905122601 65 305 7.8 13.0 0.00 0.00 0.00 70 1022.7
20260905122102 66 299 8.7 13.9 0.00 0.00 0.00 69 1022.6
20260905121602 66 334 6.1 13.0 0.00 0.00 0.00 69 1022.5
20260905121103 66 304 8.7 13.9 0.00 0.00 0.00 69 1022.5
20260905115601 66 291 7.8 15.6 0.00 0.00 0.00 67 1022.5
20260905115102 66 302 7.8 14.8 0.00 0.00 0.00 67 1022.5
20260905114102 66 297 7.8 17.4 0.00 0.00 0.00 68 1022.5
20260905113601 66 283 7.8 19.1 0.00 0.01 0.00 68 1022.5
20260905112103 66 287 7.0 14.8 0.00 0.02 0.00 65 1022.1
20260905105102 66 304 7.8 13.9 0.00 0.05 0.00 68 1021.9
20260905104602 66 286 7.8 17.4 0.00 0.05 0.00 68 1021.9
20260905102102 67 288 7.8 15.6 0.00 0.11 0.00 67 1021.5
20260905101602 67 274 5.2 11.3 0.00 0.11 0.00 69 1021.4
20260905101103 66 299 7.8 17.4 0.00 0.11 0.00 70 1021.4
20260905092601 66 302 7.0 17.4 0.00 0.11 0.00 71 1020.8
20260905092102 66 289 6.1 13.0 0.00 0.11 0.00 71 1020.7
20260905090101 66 281 4.3 14.8 0.00 0.11 0.00 71 1020.5
20260905085601 66 296 7.8 13.9 0.00 0.11 0.00 71 1020.5
20260905085102 66 288 7.8 11.3 0.00 0.11 0.00 71 1020.5
20260905084601 65 287 7.8 14.8 0.00 0.11 0.00 70 1020.4
20260905084102 66 283 7.8 18.2 0.00 0.11 0.00 71 1020.4
20260905083601 65 272 8.7 13.9 0.00 0.11 0.00 73 1020.2
20260905083102 65 294 6.1 20.0 0.00 0.11 0.00 73 1020.0
20260905082603 65 278 7.8 13.0 0.00 0.11 0.00 73 1019.9
20260905082102 65 293 6.1 14.8 0.00 0.11 0.00 73 1019.9
20260905081601 65 302 7.0 13.0 0.00 0.11 0.00 74 1019.8
20260905081102 65 289 6.1 13.9 0.00 0.11 0.00 74 1019.6
20260905080101 65 295 7.8 15.6 0.00 0.11 0.00 75 1019.5
20260905075601 65 272 6.1 13.9 0.00 0.11 0.00 75 1019.4
20260905075102 65 275 4.3 13.9 0.00 0.11 0.00 75 1019.4
20260905074601 65 290 4.3 13.0 0.00 0.11 0.00 75 1019.4
20260905074102 65 283 7.8 14.8 0.00 0.11 0.00 74 1019.3
20260905073601 65 284 7.8 13.9 0.00 0.11 0.00 75 1019.2
20260905073102 65 289 8.7 13.9 0.00 0.11 0.00 74 1019.2
20260905072601 65 279 7.0 15.6 0.00 0.11 0.00 75 1019.2
20260905072104 65 282 4.3 11.3 0.00 0.11 0.00 76 1019.1
20260905071601 65 287 6.1 12.2 0.00 0.11 0.00 76 1018.9
20260905071102 64 289 6.1 12.2 0.00 0.11 0.00 76 1018.9
20260905064601 64 295 6.1 11.3 0.00 0.11 0.00 77 1018.7
20260905064102 64 268 7.8 14.8 0.00 0.11 0.00 77 1018.6
20260905063601 64 282 7.8 17.4 0.00 0.11 0.00 77 1018.6
20260905061601 64 275 6.1 13.0 0.00 0.11 0.00 78 1018.4
20260905061101 64 281 5.2 13.9 0.00 0.11 0.00 78 1018.3
20260905060101 64 277 5.2 12.2 0.00 0.11 0.00 79 1018.2
20260905055602 64 295 4.3 10.4 0.00 0.11 0.00 79 1018.1
20260905055102 64 290 4.3 8.7 0.00 0.11 0.00 79 1018.0
20260905053602 64 282 5.2 7.8 0.00 0.11 0.00 79 1017.9
20260905051601 64 266 4.3 7.0 0.00 0.11 0.00 79 1017.7
20260905051101 64 294 3.5 10.4 0.00 0.11 0.00 79 1017.6
20260905044600 64 250 4.3 10.4 0.00 0.11 0.00 78 1017.3
20260905043101 64 278 3.5 10.4 0.00 0.11 0.00 78 1017.3
20260905042601 64 281 4.3 8.7 0.00 0.11 0.00 78 1017.3
20260905042101 64 290 4.3 7.8 0.00 0.11 0.00 78 1017.3
20260905041601 64 270 4.3 8.7 0.00 0.11 0.00 78 1017.2
20260905041102 64 292 4.3 7.8 0.00 0.11 0.00 78 1017.2
20260905033601 63 281 2.6 7.0 0.00 0.11 0.00 77 1016.9
20260905033101 64 267 2.6 6.1 0.00 0.11 0.00 77 1016.9
20260905031601 63 285 4.3 7.8 0.00 0.11 0.00 77 1016.9
20260905031102 63 275 2.6 8.7 0.00 0.11 0.00 77 1016.9
20260905030100 63 267 4.3 7.8 0.00 0.11 0.00 77 1016.8
20260905025600 63 262 3.5 7.0 0.00 0.11 0.00 76 1016.8
20260905022600 63 261 3.5 7.8 0.00 0.11 0.00 74 1016.6
20260905022102 63 273 3.5 6.1 0.00 0.11 0.00 74 1016.5
20260905012101 64 317 2.6 11.3 0.00 0.11 0.00 73 1016.3
20260905011600 64 271 5.2 10.4 0.00 0.11 0.00 73 1016.3
20260905011101 64 286 5.2 8.7 0.00 0.11 0.00 74 1016.3
20260905003101 65 297 4.3 7.8 0.00 0.11 0.00 73 1016.3
20260905002601 65 303 3.5 7.8 0.00 0.11 0.00 72 1016.3
20260905001101 65 286 5.2 10.4 0.00 0.11 0.00 73 1016.2
20260904234100 65 287 5.2 12.2 0.00 0.11 0.00 71 1015.9
20260904233600 65 281 5.2 11.3 0.00 0.11 0.00 71 1015.9
20260904231101 65 290 4.3 12.2 0.00 0.11 0.00 71 1015.8
20260904225101 65 284 5.2 7.8 0.00 0.11 0.00 70 1015.8
20260904224601 65 293 4.3 10.4 0.00 0.11 0.00 69 1015.8
20260904224101 65 286 6.1 10.4 0.00 0.11 0.00 69 1015.8
20260904222601 66 294 5.2 10.4 0.00 0.11 0.00 68 1015.7
20260904220100 65 295 5.2 10.4 0.00 0.11 0.00 69 1015.6
20260904215600 66 290 3.5 8.7 0.00 0.11 0.11 68 1015.4
20260904215100 66 285 7.0 12.2 0.00 0.11 0.11 67 1015.4
20260904214600 66 292 4.3 12.2 0.00 0.11 0.11 67 1015.4
20260904214101 66 320 7.8 14.8 0.00 0.11 0.11 67 1015.4
20260904211600 66 274 4.3 10.4 0.00 0.11 0.11 68 1015.3
20260904211100 66 280 5.2 14.8 0.00 0.11 0.11 68 1015.3
20260904210100 66 300 6.1 10.4 0.00 0.11 0.11 68 1015.2
20260904205559 66 293 5.2 10.4 0.00 0.11 0.11 69 1015.0
20260904195559 66 287 4.3 13.9 0.00 0.11 0.11 69 1014.8
20260904195101 66 267 7.8 12.2 0.00 0.11 0.11 69 1014.8
20260904194600 66 272 5.2 8.7 0.00 0.11 0.11 69 1014.8
20260904194100 66 296 6.1 10.4 0.00 0.11 0.11 69 1014.7
20260904193601 66 299 5.2 10.4 0.00 0.11 0.11 68 1014.7
20260904192101 66 288 7.0 13.0 0.00 0.11 0.11 68 1014.4
20260904185101 66 276 5.2 7.8 0.00 0.11 0.11 70 1014.2
20260904184559 66 286 4.3 10.4 0.00 0.11 0.11 70 1014.1
20260904183100 66 282 4.3 8.7 0.00 0.11 0.11 71 1013.8
20260904182559 66 293 5.2 10.4 0.00 0.11 0.11 71 1013.9
20260904180100 66 306 4.3 11.3 0.00 0.11 0.11 71 1013.8
20260904175600 66 289 5.2 11.3 0.00 0.11 0.11 71 1013.8
20260904174100 67 283 6.1 12.2 0.00 0.11 0.11 73 1013.5
20260904173600 67 299 5.2 12.2 0.00 0.11 0.11 73 1013.6
20260904173101 67 308 6.1 13.0 0.00 0.11 0.11 74 1013.5
20260904172559 67 280 4.3 10.4 0.00 0.11 0.11 75 1013.6
20260904172101 67 306 5.2 10.4 0.00 0.11 0.11 75 1013.3
20260904165600 67 293 5.2 10.4 0.00 0.11 0.11 73 1013.0
20260904164600 67 294 7.8 13.9 0.00 0.11 0.11 71 1013.1
20260904164100 67 289 8.7 14.8 0.00 0.11 0.11 73 1013.2
20260904163559 67 284 7.8 13.0 0.00 0.11 0.11 74 1012.9